Weather in Ghat

Libya     24°57′57″N   10°11′01″E
temp.,
°C
wind,
m/s
gust,
m/s
humid.,
%
clouds,
%
prec.,
mm/h
press.,
hPa
HPBL,
m
29 june, wed
wed2923:00+34ese591188 0.0 1013187
02:00+32ese6111253 0.0 1012256
05:00+30se331387 0.0 101342
08:00+31se36121 0.0 1014414
11:00+36ese7890 0.0 10133137
14:00+39ese7770 0.0 10114419
17:00+39ese7675 0.0 10104956
20:00+36e79839 0.0 1010427
30 june, thu
thu3023:00+34ese814100 0.0 1012319
02:00+31ese510120 0.0 1012187
05:00+29sse12140 0.0 101111
08:00+30se23130 0.0 1013186
11:00+36se79100 0.0 10133032
14:00+38e8880 0.0 10114047
17:00+39e7870 0.0 10104756
20:00+36e71090 0.0 1011434
1 july, fri
fri123:00+33ese510110 0.0 1013202
02:00+30ese33130 0.0 101316
05:00+28ese11140 0.0 101311
08:00+31sse12130 0.0 1015106
11:00+37se89100 0.0 10143806
14:00+39se6975 0.0 10135077
17:00+40ese7768 0.0 10115387
20:00+37se5789 0.0 1012108
2 july, sat
sat223:00+35n339100 0.0 101421
02:00+31sse111216 0.0 101311
05:00+31n22133 0.0 101311
08:00+31nne24130 0.0 1015182
11:00+38e78100 0.0 10152096
14:00+41ene91170 0.0 10134474
17:00+40ene91070 0.0 10114705
20:00+38ne101390 0.0 1012750
3 july, sun
sun323:00+34e813110 0.0 1015336
02:00+31e47120 0.0 1014143
05:00+29se12140 0.0 101312
08:00+31n11130 0.0 101590
11:00+36ene14110 0.0 10141802
14:00+40ne71180 0.0 10124307
17:00+40nne81070 0.0 10104707
20:00+38ne5880 0.0 1009148